CW9181 Weather Reports


time (UTC)temp
F
wind
direction
speed
knots
gust
knots
rain 1hr
in
rain 24hr
in
rain mn
in
humidity
%
barometer
mb
20240614123012 56 153 3.5 7.0 0.00 0.00 0.00 74 1014.6
20240614122016 56 132 2.6 6.1 0.00 0.00 0.00 75 1014.4
20240614121017 56 128 2.6 7.8 0.00 0.00 0.00 75 1014.3
20240614120016 56 143 2.6 6.1 0.00 0.00 0.00 76 1014.3
20240614115005 56 122 2.6 4.3 0.00 0.00 0.00 76 1014.1
20240614114008 56 134 1.7 7.0 0.00 0.00 0.00 77 1014.0
20240614113012 56 108 2.6 7.0 0.00 0.00 0.00 77 1014.0
20240614112012 56 137 2.6 6.1 0.00 0.00 0.00 77 1014.0
20240614111017 56 114 3.5 7.8 0.00 0.00 0.00 76 1013.9
20240614110016 56 141 2.6 7.0 0.00 0.00 0.00 75 1013.9
20240614105014 57 169 2.6 7.0 0.00 0.00 0.00 75 1014.0
20240614104014 57 155 2.6 9.6 0.00 0.00 0.00 75 1013.9
20240614103009 57 115 3.5 7.8 0.00 0.00 0.00 74 1013.9
20240614102005 57 185 3.5 8.7 0.00 0.00 0.00 74 1013.8
20240614101002 57 187 4.3 10.4 0.00 0.00 0.00 74 1013.7
20240614100043 58 174 4.3 7.0 0.00 0.00 0.00 73 1013.9
20240614095016 58 130 2.6 5.2 0.00 0.00 0.00 73 1013.8
20240614094009 58 161 3.5 7.0 0.00 0.00 0.00 73 1013.9
20240614093003 58 173 2.6 6.1 0.00 0.00 0.00 73 1014.0
20240614092020 58 169 4.3 8.7 0.00 0.00 0.00 73 1014.0
20240614091038 58 175 3.5 9.6 0.00 0.00 0.00 72 1014.0
20240614090017 58 166 5.2 7.8 0.00 0.00 0.00 72 1014.1
20240614085012 58 180 3.5 7.8 0.00 0.00 0.00 72 1014.0
20240614084006 58 184 3.5 7.0 0.00 0.00 0.00 72 1014.1
20240614083002 58 180 5.2 9.6 0.00 0.00 0.00 72 1014.1
20240614082055 59 199 6.1 10.4 0.00 0.00 0.00 72 1014.1
20240614081008 59 122 4.3 11.3 0.00 0.00 0.00 70 1014.4
20240614080002 59 170 5.2 8.7 0.00 0.00 0.00 70 1014.3
20240614075001 60 184 5.2 10.4 0.00 0.00 0.00 70 1014.1
20240614074041 60 176 3.5 7.8 0.00 0.00 0.00 70 1014.1
20240614073020 60 152 4.3 7.8 0.00 0.00 0.00 69 1014.2
20240614072020 61 161 3.5 11.3 0.00 0.00 0.00 68 1014.3
20240614071020 61 131 5.2 9.6 0.00 0.00 0.00 69 1014.4
20240614070017 61 137 4.3 7.8 0.00 0.00 0.00 69 1014.4
20240614065018 62 153 4.3 10.4 0.00 0.00 0.00 67 1014.4
20240614064033 62 139 4.3 10.4 0.00 0.00 0.00 66 1014.4
20240614063028 63 182 4.3 8.7 0.00 0.00 0.00 66 1014.3
20240614062039 63 186 3.5 7.8 0.00 0.00 0.00 65 1014.4
20240614061009 63 106 3.5 9.6 0.00 0.00 0.00 65 1014.2
20240614060019 64 169 3.5 7.8 0.00 0.00 0.00 64 1014.2
20240614055032 64 158 3.5 10.4 0.00 0.00 0.00 63 1014.2
20240614054003 65 149 1.7 9.6 0.00 0.00 0.00 62 1014.0
20240614053013 65 204 2.6 9.6 0.00 0.00 0.00 62 1014.0
20240614052013 66 172 5.2 8.7 0.00 0.00 0.00 61 1013.9
20240614051021 67 149 5.2 11.3 0.00 0.00 0.00 60 1013.8
20240614050004 68 147 5.2 9.6 0.00 0.00 0.00 58 1013.8
20240614045020 69 154 6.1 9.6 0.00 0.00 0.00 57 1013.8
20240614044020 70 162 4.3 9.6 0.00 0.00 0.00 55 1013.5
20240614043038 71 197 7.0 12.2 0.00 0.00 0.00 54 1013.2
20240614042019 71 182 6.1 10.4 0.00 0.00 0.00 54 1013.0
20240614041016 72 178 3.5 11.3 0.00 0.00 0.00 53 1012.7
20240614040008 73 183 3.5 9.6 0.00 0.00 0.00 53 1012.6
20240614035005 73 143 3.5 8.7 0.00 0.00 0.00 52 1012.6
20240614034006 74 162 4.3 9.6 0.00 0.00 0.00 52 1012.5
20240614033007 74 161 5.2 11.3 0.00 0.00 0.00 50 1012.5
20240614032026 76 158 5.2 11.3 0.00 0.00 0.00 48 1012.5
20240614031008 77 128 7.8 13.0 0.00 0.00 0.00 46 1012.3
20240614030008 78 156 3.5 11.3 0.00 0.00 0.00 47 1012.3
20240614025009 79 212 7.0 11.3 0.00 0.00 0.00 44 1012.2
20240614024010 80 180 6.1 11.3 0.00 0.00 0.00 44 1012.1
20240614023014 81 159 4.3 12.2 0.00 0.00 0.00 44 1011.9
20240614022013 82 189 6.1 12.2 0.00 0.00 0.00 43 1011.8
20240614021012 83 181 4.3 11.3 0.00 0.00 0.00 42 1011.7
20240614020020 84 172 6.1 11.3 0.00 0.00 0.00 41 1011.7
20240614015017 85 265 2.6 9.6 0.00 0.00 0.00 39 1011.6
20240614014020 85 164 4.3 10.4 0.00 0.00 0.00 38 1011.5
20240614013004 85 234 3.5 9.6 0.00 0.00 0.00 38 1011.4
20240614012033 85 182 7.0 11.3 0.00 0.00 0.00 37 1011.1
20240614011008 85 184 6.1 12.2 0.00 0.00 0.00 36 1011.2
20240614010012 86 190 7.0 13.9 0.00 0.00 0.00 36 1011.2
20240614005007 87 213 5.2 10.4 0.00 0.00 0.00 35 1011.2
20240614004028 87 215 3.5 12.2 0.00 0.00 0.00 35 1011.3
20240614003041 88 196 5.2 9.6 0.00 0.00 0.00 34 1011.3
20240614002022 88 189 5.2 8.7 0.00 0.00 0.00 32 1011.4
20240614001021 88 209 4.3 10.4 0.00 0.00 0.00 34 1011.3
20240614000017 89 234 4.3 11.3 0.00 0.00 0.00 35 1011.4
20240613235017 88 144 4.3 10.4 0.00 0.00 0.00 35 1011.3
20240613234019 88 100 5.2 12.2 0.00 0.00 0.00 36 1011.3
20240613233021 88 161 4.3 9.6 0.00 0.00 0.00 35 1011.2
20240613232019 87 197 7.0 11.3 0.00 0.00 0.00 34 1011.3
20240613231022 88 143 4.3 12.2 0.00 0.00 0.00 35 1011.4
20240613230021 87 110 2.6 8.7 0.00 0.00 0.00 35 1011.3
20240613225003 88 255 4.3 7.8 0.00 0.00 0.00 35 1011.5
20240613224009 87 160 3.5 7.8 0.00 0.00 0.00 37 1011.6
20240613223017 86 182 5.2 10.4 0.00 0.00 0.00 36 1011.7
20240613222018 86 189 3.5 9.6 0.00 0.00 0.00 36 1011.7
20240613221015 86 188 4.3 11.3 0.00 0.00 0.00 37 1011.7
20240613220017 86 155 3.5 7.0 0.00 0.00 0.00 35 1011.8
20240613215017 85 188 2.6 7.8 0.00 0.00 0.00 37 1012.0
20240613214035 85 161 2.6 7.0 0.00 0.00 0.00 35 1012.0
20240613213018 84 237 4.3 9.6 0.00 0.00 0.00 38 1011.9
20240613212019 84 276 3.5 8.7 0.00 0.00 0.00 39 1012.1
20240613211039 84 249 1.7 8.7 0.00 0.00 0.00 37 1012.1
20240613210014 84 174 2.6 9.6 0.00 0.00 0.00 38 1012.1
20240613205012 84 214 4.3 7.8 0.00 0.00 0.00 39 1012.2
20240613204033 83 211 2.6 7.0 0.00 0.00 0.00 41 1012.3
20240613203018 83 152 4.3 7.8 0.00 0.00 0.00 40 1012.4
20240613202015 82 191 3.5 9.6 0.00 0.00 0.00 41 1012.5
20240613201036 82 270 1.7 7.8 0.00 0.00 0.00 40 1012.5
20240613200008 81 186 2.6 7.0 0.00 0.00 0.00 41 1012.6
20240613195042 81 205 3.5 8.7 0.00 0.00 0.00 43 1012.7
20240613194002 81 164 4.3 8.7 0.00 0.00 0.00 41 1012.8
20240613193007 80 214 2.6 11.3 0.00 0.00 0.00 43 1012.7
20240613192009 80 138 4.3 7.8 0.00 0.00 0.00 40 1012.8
20240613191012 79 239 2.6 8.7 0.00 0.00 0.00 43 1012.9
20240613190013 80 166 0.9 7.8 0.00 0.00 0.00 43 1012.9
20240613185014 79 195 2.6 7.0 0.00 0.00 0.00 44 1012.8
20240613184019 79 104 4.3 7.8 0.00 0.00 0.00 41 1012.8
20240613183042 78 229 2.6 8.7 0.00 0.00 0.00 41 1012.8
20240613182038 78 274 1.7 7.0 0.00 0.00 0.00 42 1012.8
20240613181018 78 226 3.5 7.0 0.00 0.00 0.00 44 1012.7
20240613180002 77 181 1.7 8.7 0.00 0.00 0.00 44 1012.7
20240613175017 76 260 3.5 5.2 0.00 0.00 0.00 46 1012.7
20240613174020 76 195 2.6 8.7 0.00 0.00 0.00 45 1012.8
20240613173024 75 246 3.5 8.7 0.00 0.00 0.00 46 1012.8
20240613172011 75 183 5.2 8.7 0.00 0.00 0.00 46 1012.7
20240613171016 74 260 1.7 7.0 0.00 0.00 0.00 49 1012.7
20240613170006 74 240 2.6 8.7 0.00 0.00 0.00 48 1012.7
20240613165009 73 146 3.5 8.7 0.00 0.00 0.00 49 1012.8
20240613164012 72 141 3.5 9.6 0.00 0.00 0.00 49 1012.9
20240613163027 72 205 2.6 7.8 0.00 0.00 0.00 53 1012.9
20240613162029 71 128 2.6 7.0 0.00 0.00 0.00 54 1012.9
20240613161009 70 209 2.6 7.0 0.00 0.00 0.00 54 1012.9
20240613160006 70 177 4.3 7.8 0.00 0.00 0.00 55 1012.8
20240613155008 68 201 2.6 9.6 0.00 0.00 0.00 57 1012.8
20240613154032 68 168 2.6 11.3 0.00 0.00 0.00 59 1012.7
20240613153010 67 173 3.5 8.7 0.00 0.00 0.00 63 1012.7
20240613152013 66 192 4.3 7.8 0.00 0.00 0.00 64 1012.6
20240613151016 65 164 4.3 7.0 0.00 0.00 0.00 66 1012.6
20240613150018 64 177 5.2 7.8 0.00 0.00 0.00 68 1012.5
20240613145026 63 124 3.5 7.8 0.00 0.00 0.00 70 1012.5
20240613144029 62 134 6.1 10.4 0.00 0.00 0.00 71 1012.4
20240613143003 62 100 3.5 8.7 0.00 0.00 0.00 73 1012.2
20240613142007 61 174 3.5 8.7 0.00 0.00 0.00 74 1012.1
20240613141012 60 135 2.6 9.6 0.00 0.00 0.00 75 1012.2
20240613140013 59 162 3.5 9.6 0.00 0.00 0.00 76 1011.9
20240613135015 59 149 2.6 10.4 0.00 0.00 0.00 77 1011.9
20240613134042 59 158 3.5 7.8 0.00 0.00 0.00 77 1011.8
20240613133006 59 137 3.5 8.7 0.00 0.00 0.00 77 1011.6
20240613132004 59 120 2.6 7.0 0.00 0.00 0.00 77 1011.6
20240613131001 59 161 3.5 6.1 0.00 0.00 0.00 77 1011.4
20240613130033 59 139 2.6 7.0 0.00 0.00 0.00 78 1011.3
20240613125037 59 148 2.6 6.1 0.00 0.00 0.00 77 1011.2
20240613124011 59 93 3.5 7.0 0.00 0.00 0.00 77 1010.9